Location: Franzen
(48.6167°N, 15.3833°E)
Time: 06:57:43
(UTC+00:00)

Transit 2A - Pass Details

Date: 05 August 2021
Orbit: 594 x 964 km, 66.7° (Epoch: 24 September)

Event Time Altitude Azimuth Distance (km) Brightness Sun altitude
Rises 04:39:43 0° 216° (SW) 2,842 8.5 8.6°
Reaches altitude 10° 04:41:54 10° 217° (SW) 1,964 7.7 9.0°
Maximum altitude 04:46:18 83° 306° (NW) 652 5.8 9.7°
Drops below altitude 10° 04:51:06 10° 34° (NE) 2,137 9.2 10.4°
Sets 04:53:33 0° 36° (NE) 3,115 10.0 10.8°
